Temp
68 67 65 66 66 66 66 65 65 65 65 65 64 64 61 61 60 62 63 66 67 72 73 67 72 74 70 68 68 67 68 64 63 65 66 67 66 56 53 52 54 53 52 52 53 55 56 57 58 59 61 62 63 63 65 65 64 64 65 66 67 66 64 63 64 65 66 67 67 65 65 65 65 65
68 67 67 67 67 66 67 67 67 67 67 66 66 66 64 63 60 60 60 63 68 66 70 70 69 71 69 68 67 67 68 60 64 66 65 66 67 55 52 52 52 52 51 51 51 53 54 55 56 57 59 60 60 61 62 64 65 65 66 67 66 65 64 64 64 65 65 65 65 63 64 65 65 65
68 67 66 67 67 68 69 69 68 68 67 67 68 67 67 65 62 61 62 60 67 68 65 68 72 70 68 68 67 67 68 66 65 67 65 67 61 57 55 52 51 52 51 51 52 53 53 53 54 55 56 56 57 58 57 59 61 65 66 64 64 63 63 63 64 65 65 64 65 64 64 64 65 65
68 67 66 66 67 68 69 68 69 68 68 67 67 67 66 65 63 62 61 60 61 68 67 68 71 71 68 69 68 67 67 66 62 68 66 66 61 67 64 51 53 52 51 50 51 51 52 53 53 53 54 54 55 54 53 54 54 54 57 60 61 61 61 62 63 65 65 65 65 65 64 64 64 64
68 67 67 68 67 68 67 68 68 68 68 68 67 66 65 64 63 62 61 60 62 66 70 69 69 70 68 68 69 66 66 66 68 65 67 66 66 67 70 67 53 53 51 50 50 50 50 50 53 52 52 52 52 51 49 50 50 51 53 54 57 59 59 60 59 61 64 64 64 64 64 64 63 63
67 67 67 67 67 67 66 66 67 67 66 67 67 65 64 63 62 63 61 61 62 61 67 67 70 69 68 66 69 66 64 65 67 68 68 68 68 67 69 70 65 51 53 50 50 51 50 49 50 50 49 48 48 48 48 48 48 49 50 48 48 55 59 60 59 58 62 63 63 63 63 62 62 62
68 67 66 66 66 66 65 66 66 66 66 67 66 64 64 62 62 62 62 60 60 61 64 67 66 67 66 65 66 66 66 66 67 67 66 66 66 67 67 68 69 53 53 50 51 51 50 50 49 49 49 49 48 48 48 48 48 48 48 47 48 49 53 57 57 57 61 63 63 62 62 61 61 62
68 67 66 66 66 66 65 65 65 65 65 65 65 64 64 63 62 63 62 62 61 62 62 64 65 66 65 66 67 65 66 66 67 66 67 67 66 67 67 69 69 60 53 52 51 52 51 51 50 49 49 49 48 48 48 48 48 48 47 48 48 47 48 51 54 54 57 62 63 62 62 61 61 63
68 67 66 66 67 66 64 64 64 64 63 64 64 63 64 65 64 63 63 63 63 62 62 63 66 66 66 66 66 65 63 65 67 68 68 67 67 67 67 68 66 57 56 55 55 53 52 52 51 50 49 49 49 48 48 48 48 48 47 47 47 47 47 48 51 53 54 56 58 61 62 60 61 64
68 67 66 66 66 65 63 63 63 64 63 63 63 63 63 65 65 64 64 64 64 64 64 63 62 65 63 63 64 64 63 63 64 65 67 69 68 67 67 67 65 63 63 63 62 57 56 54 53 51 50 49 49 48 48 48 48 47 47 47 47 47 47 47 48 50 52 53 55 57 59 58 59 62
67 67 67 66 65 64 64 62 62 62 63 63 63 62 62 64 64 64 64 64 64 64 63 63 63 63 64 63 61 65 65 64 64 62 63 64 67 67 66 63 64 63 62 60 55 56 55 54 56 52 52 50 49 49 48 48 48 48 47 47 46 46 46 47 47 49 50 51 53 54 55 56 58 61
67 67 67 66 65 64 63 62 61 60 61 63 62 62 62 62 62 63 63 63 64 63 62 62 61 63 62 63 63 64 62 60 61 62 60 59 62 64 66 64 61 60 61 62 64 60 58 58 57 54 54 52 50 50 49 49 48 48 47 46 46 46 46 46 47 48 49 50 51 52 52 53 54 58
67 67 66 65 63 60 53 49 51 51 52 60 60 60 61 61 62 62 62 62 62 62 62 60 61 61 60 60 59 58 56 55 56 60 61 61 62 64 64 64 64 60 58 61 63 61 59 59 59 58 57 55 53 52 49 49 48 47 46 46 46 46 46 46 47 48 49 50 51 52 52 52 52 54
67 66 65 62 56 53 52 49 46 45 45 47 53 57 58 59 61 60 60 60 61 62 60 59 59 58 57 57 57 56 56 57 58 59 59 58 60 61 61 63 63 62 59 59 60 60 60 59 58 58 55 55 54 53 51 48 47 46 45 46 45 45 46 46 47 47 48 49 50 51 51 51 52 52
65 65 66 63 58 55 53 52 44 44 43 43 44 43 44 48 55 58 58 58 59 59 59 59 58 57 56 56 58 57 57 57 56 58 59 58 58 56 54 54 60 63 59 58 59 59 60 59 57 56 55 55 54 52 50 46 46 46 45 45 45 45 46 46 46 47 48 49 49 50 51 51 51 51
66 66 66 65 65 65 64 62 57 50 44 43 41 41 43 42 41 43 52 55 56 56 57 57 57 57 56 56 58 56 55 54 56 59 59 57 56 55 54 54 54 59 60 57 57 58 60 60 58 57 55 56 55 52 49 46 45 45 45 45 45 45 45 45 46 46 47 48 49 49 49 50 50 50
66 66 65 64 64 63 59 64 65 63 57 46 43 44 42 43 44 42 42 45 54 58 57 56 56 55 55 56 56 55 54 56 56 58 58 57 57 57 55 55 57 59 60 58 55 56 59 59 58 57 56 57 56 54 50 46 45 45 45 45 45 44 44 45 45 46 46 47 48 48 49 49 49 50
66 66 65 64 64 64 65 65 64 64 64 63 60 59 61 61 52 44 42 41 40 49 57 57 55 56 57 54 55 57 57 55 55 56 56 57 57 57 57 58 60 62 63 57 55 56 58 58 58 57 57 58 57 56 50 47 45 45 45 45 44 44 44 44 44 45 46 46 47 47 48 48 48 49
66 66 66 65 65 65 64 63 59 64 64 63 62 61 60 61 60 60 58 58 58 59 59 59 58 58 58 56 55 55 56 57 59 59 58 59 60 62 64 64 63 63 62 59 56 51 57 59 57 57 58 58 58 58 53 48 46 45 45 44 44 44 44 44 44 45 46 46 46 47 47 47 48 48
66 67 66 66 64 64 62 54 42 50 61 65 63 61 61 61 61 59 53 46 47 52 55 56 56 56 52 45 52 51 53 57 59 63 66 65 64 63 61 59 60 60 62 59 55 53 55 58 56 56 58 58 57 58 58 51 47 46 46 45 44 44 44 44 44 44 44 44 45 45 45 45 45 46
66 67 67 67 65 64 63 50 43 44 45 64 62 61 60 60 61 60 55 43 40 40 40 39 39 39 39 39 39 41 42 49 55 63 62 60 62 60 58 57 57 58 60 58 56 55 54 56 56 55 57 55 55 55 55 54 49 47 47 46 45 44 44 44 44 44 44 44 44 44 44 44 44 45
66 61 48 57 66 63 62 41 40 40 50 64 62 62 61 60 60 60 61 58 53 41 42 41 42 42 42 41 39 41 44 45 52 58 55 58 61 58 57 55 56 59 60 56 57 54 55 56 57 55 57 58 55 55 54 52 50 49 50 48 46 45 45 44 43 44 44 44 44 44 44 44 46 47
65 63 58 44 49 57 50 38 42 39 50 64 62 61 61 59 59 59 60 60 61 61 60 59 57 54 49 57 61 59 45 48 52 57 57 59 59 57 57 57 57 57 57 56 57 53 55 54 55 55 53 52 54 55 53 52 50 50 52 52 51 46 45 45 44 43 43 44 44 44 44 44 45 46
64 64 63 54 38 38 39 41 38 42 39 59 62 61 60 59 56 61 60 59 60 61 61 61 62 62 63 63 63 64 62 60 57 57 57 57 57 56 57 57 56 53 54 57 56 53 56 55 54 57 53 48 44 50 53 51 50 49 49 49 48 47 47 47 46 44 43 43 43 43 44 44 45 45
64 65 65 64 40 37 38 41 38 42 41 42 61 59 58 57 52 50 62 58 52 62 61 62 61 63 64 63 63 63 62 59 58 58 57 57 57 56 54 54 54 54 56 58 50 57 53 54 52 54 53 53 50 49 51 51 51 49 48 48 47 48 47 48 49 49 46 44 43 43 42 43 43 45
66 65 65 64 45 37 39 38 41 38 42 44 61 55 44 39 38 55 63 64 65 64 63 63 62 62 62 62 61 61 61 59 58 58 58 57 57 57 56 54 52 51 52 58 49 56 54 52 51 51 51 50 50 50 47 49 51 51 50 50 49 48 47 46 47 48 48 47 45 44 42 42 42 42
64 65 62 55 39 38 37 40 38 42 38 48 54 39 37 41 38 44 64 64 63 63 63 61 60 60 61 60 60 60 60 61 60 60 60 60 60 59 58 58 57 55 57 60 61 58 56 54 54 52 51 52 49 49 49 47 49 53 51 50 50 49 49 48 46 45 45 46 46 45 45 44 43 42
64 64 62 53 38 38 38 37 39 38 43 52 38 37 40 37 42 65 63 64 62 60 60 60 60 60 60 60 60 59 61 61 63 62 61 61 62 60 60 60 60 59 59 61 62 62 58 56 56 56 54 53 51 48 48 52 51 51 50 52 51 51 50 50 48 46 46 45 45 45 45 44 45 45
59 44 37 36 38 39 39 37 38 42 39 36 38 39 40 46 66 63 64 62 63 60 60 60 60 60 60 60 60 60 61 62 63 63 63 62 62 63 62 60 60 59 58 59 61 62 61 60 60 60 58 57 55 54 54 51 51 50 50 51 49 50 51 51 50 49 50 49 46 44 44 45 45 45
37 38 39 36 36 37 43 52 59 61 58 43 40 42 44 65 63 64 63 63 61 60 60 59 59 61 62 62 62 62 63 62 61 61 61 62 60 61 61 61 60 60 60 60 61 61 61 60 58 59 59 58 58 56 57 55 53 53 51 51 51 52 52 53 52 52 50 50 51 49 48 47 45 45
54 49 50 52 45 46 39 44 47 51 47 51 54 62 64 64 63 62 62 61 61 59 61 60 61 62 63 64 63 62 62 61 61 62 60 61 60 61 62 61 60 60 60 61 61 60 61 60 60 59 56 57 58 57 57 58 56 55 54 54 51 46 50 53 52 51 51 51 51 50 50 50 48 48
60 59 46 46 58 57 58 60 62 62 62 61 61 64 64 63 60 56 52 54 63 62 62 63 62 62 62 62 62 62 62 61 61 62 61 60 60 60 62 60 58 60 60 60 61 60 55 60 59 60 58 56 55 57 60 58 57 57 56 56 55 55 54 52 51 52 52 51 49 48 48 48 48 49
60 60 59 60 60 61 52 62 63 63 63 63 62 61 64 64 64 64 64 62 61 60 61 60 61 60 62 61 62 62 61 60 61 62 61 61 61 62 62 59 58 58 58 59 59 60 61 60 60 59 59 59 58 57 57 57 57 58 57 57 57 56 57 56 55 54 54 52 50 49 48 49 49 48
61 61 60 60 57 60 61 60 60 61 62 62 62 62 52 62 63 62 62 62 61 58 59 60 60 60 60 61 61 61 60 61 62 60 55 60 61 60 60 59 58 59 59 58 59 59 61 61 62 61 60 59 59 58 57 56 57 58 58 58 58 56 57 59 58 59 58 56 54 51 50 50 51 51
52 56 56 58 60 59 61 59 59 59 60 58 59 61 61 62 60 56 62 61 58 57 54 59 60 59 59 60 60 59 59 59 61 62 61 62 61 60 59 58 58 58 59 59 59 60 61 61 61 61 62 61 58 57 51 54 57 57 59 58 58 57 57 58 58 58 58 58 59 54 53 53 52 54
57 59 59 55 60 61 58 57 57 61 60 60 61 60 56 59 59 59 59 58 61 60 60 57 56 56 58 59 58 58 58 54 60 60 59 61 60 59 60 58 58 59 60 59 59 60 61 61 61 58 55 57 56 53 53 48 49 57 57 56 58 57 58 58 59 60 59 59 58 56 46 51 53 55
57 59 61 61 61 60 58 60 61 61 61 61 61 62 56 58 60 62 60 59 60 58 58 56 55 57 57 55 57 55 55 56 57 58 58 61 60 59 58 57 57 59 60 60 61 60 60 60 60 59 56 54 50 51 52 56 49 49 57 56 52 57 57 58 58 57 59 59 58 58 56 55 55 56
55 61 62 61 62 62 62 61 59 60 61 61 61 61 61 61 62 61 61 62 59 58 56 57 57 56 57 56 57 52 54 58 58 53 55 60 53 56 56 57 57 59 59 61 61 61 61 60 59 58 57 53 52 51 50 54 54 53 49 55 53 55 57 55 53 51 54 59 58 58 59 50 55 57
62 61 60 61 61 62 61 60 59 60 61 61 60 60 61 62 62 61 60 59 59 58 59 57 55 53 54 56 56 55 56 56 57 56 56 57 56 58 56 53 55 58 59 58 60 62 62 61 59 58 58 55 52 52 51 52 53 57 49 44 55 53 50 57 49 57 57 54 57 58 58 57 52 41
62 62 62 62 62 62 62 61 61 62 61 61 61 62 61 55 60 59 59 57 53 52 52 55 54 54 56 57 52 57 57 58 55 56 55 56 54 55 56 51 55 53 56 56 55 60 61 60 57 58 57 57 55 51 56 56 57 58 53 50 42 50 57 57 49 51 55 59 59 56 54 55 52 53
61 61 62 63 63 62 62 62 62 62 61 61 61 56 60 61 60 58 54 56 52 55 55 53 51 53 52 55 53 55 55 56 55 57 56 53 53 52 51 48 55 56 55 51 56 58 59 60 51 36 48 58 55 61 56 55 54 57 58 57 45 42 42 46 57 55 52 56 58 52 54 54 55 54
63 63 63 63 63 63 63 62 62 61 61 61 61 60 60 56 57 50 54 49 53 50 50 54 57 57 55 57 57 55 55 55 55 55 54 54 55 54 51 53 55 54 53 53 54 58 61 63 54 53 60 58 56 53 51 52 52 55 56 58 55 45 43 41 42 44 55 57 52 54 53 55 56 54
63 63 62 62 63 62 63 61 62 62 62 62 61 61 59 53 56 54 58 53 53 57 58 58 58 58 58 59 59 57 56 55 54 54 52 53 53 53 54 54 53 54 55 52 57 58 56 62 62 59 54 56 55 54 52 52 53 53 54 57 58 57 52 44 43 42 42 42 43 48 55 52 53 50
63 62 63 63 62 61 61 62 63 63 62 61 55 60 59 58 57 53 52 58 58 57 57 57 57 57 56 57 57 57 58 57 56 54 54 53 53 54 53 53 52 52 54 55 56 57 57 57 58 58 56 55 55 55 53 51 53 54 55 55 54 54 55 57 53 45 42 42 41 40 39 41 43 44
63 63 63 63 63 62 62 62 62 62 62 60 59 58 57 57 57 58 57 54 57 56 55 56 56 56 56 56 57 56 56 52 54 55 56 55 56 55 54 54 54 53 54 55 54 54 56 56 57 57 55 56 55 54 52 52 52 51 52 51 50 53 56 56 56 56 54 53 47 41 42 42 42 41
MSLP
1019.78 1019.94 1020.06 1019.98 1020.06 1020.18 1020.18 1020.30 1020.34 1020.22 1020.10 1020.06 1019.98 1019.98 1020.06 1019.98 1019.54 1018.90 1018.38 1017.82 1017.62 1017.06 1017.14 1017.70 1017.26 1017.22 1017.50 1017.70 1017.50 1017.42 1017.22 1017.26 1017.26 1016.94 1016.62 1016.50 1016.38 1016.82 1016.82 1016.58 1016.38 1016.30 1016.26 1016.10 1015.86 1015.50 1015.18 1014.78 1014.34 1013.90 1013.50 1013.10 1012.70 1012.34 1012.06 1011.94 1012.02 1012.02 1012.06 1012.14 1012.22 1012.46 1012.90 1013.18 1013.34 1013.34 1013.58 1013.78 1013.98 1014.34 1014.66 1014.94 1015.30 1015.62
1019.86 1019.98 1019.98 1019.94 1020.02 1020.14 1020.02 1020.10 1020.06 1019.98 1019.90 1019.82 1019.70 1019.78 1019.86 1019.90 1019.94 1019.66 1019.22 1018.46 1017.54 1017.98 1017.50 1017.66 1017.70 1017.42 1017.74 1017.82 1017.66 1017.54 1017.22 1017.30 1017.18 1016.94 1016.78 1016.54 1016.42 1016.74 1016.90 1016.62 1016.42 1016.30 1016.38 1016.30 1016.10 1015.78 1015.46 1015.10 1014.66 1014.22 1013.82 1013.42 1013.02 1012.62 1012.26 1011.98 1011.86 1011.90 1011.82 1011.78 1011.94 1012.06 1012.30 1012.66 1012.94 1013.06 1013.22 1013.42 1013.78 1014.30 1014.38 1014.62 1014.94 1015.30
1019.94 1020.06 1020.10 1020.02 1020.06 1019.94 1019.82 1019.78 1019.82 1019.86 1019.86 1019.70 1019.46 1019.54 1019.54 1019.70 1019.98 1019.82 1019.42 1019.02 1018.02 1018.02 1018.14 1017.90 1017.62 1017.62 1017.86 1017.82 1017.66 1017.54 1017.26 1017.18 1017.14 1016.82 1016.78 1016.58 1016.50 1016.38 1016.70 1016.58 1016.38 1016.26 1016.42 1016.42 1016.22 1015.98 1015.70 1015.34 1014.94 1014.58 1014.18 1013.74 1013.30 1012.90 1012.58 1012.26 1011.98 1011.74 1011.50 1011.46 1011.58 1011.74 1011.94 1012.34 1012.70 1012.78 1012.86 1013.22 1013.54 1013.86 1014.10 1014.22 1014.54 1014.98
1020.06 1020.14 1020.22 1020.22 1020.18 1020.06 1019.82 1019.82 1019.74 1019.74 1019.82 1019.82 1019.74 1019.74 1019.66 1019.74 1019.98 1019.90 1019.66 1019.30 1018.94 1018.02 1018.10 1017.90 1017.62 1017.70 1017.98 1017.62 1017.54 1017.58 1017.42 1017.18 1017.06 1016.82 1016.78 1016.70 1016.42 1015.94 1016.18 1016.50 1016.18 1016.22 1016.38 1016.50 1016.38 1016.18 1015.90 1015.58 1015.18 1014.86 1014.50 1014.10 1013.66 1013.30 1013.02 1012.66 1012.38 1012.14 1011.86 1011.46 1011.34 1011.46 1011.58 1011.74 1012.02 1012.38 1012.54 1012.74 1012.98 1013.30 1013.62 1014.06 1014.26 1014.58
1020.10 1020.14 1020.18 1020.22 1020.26 1020.14 1020.02 1019.90 1019.82 1019.78 1019.70 1019.70 1019.78 1019.94 1019.98 1019.98 1019.98 1020.02 1019.74 1019.42 1019.02 1018.34 1017.94 1017.86 1017.82 1017.70 1018.02 1017.70 1017.58 1017.70 1017.50 1017.26 1017.02 1016.70 1016.62 1016.62 1016.46 1016.14 1015.74 1015.66 1016.10 1016.10 1016.38 1016.54 1016.42 1016.26 1016.06 1015.74 1015.38 1015.06 1014.74 1014.42 1014.06 1013.70 1013.34 1013.02 1012.70 1012.34 1011.98 1011.82 1011.46 1011.18 1011.22 1011.22 1011.46 1011.70 1011.90 1012.30 1012.62 1012.90 1013.18 1013.58 1013.98 1014.30
1020.26 1020.26 1020.30 1020.38 1020.42 1020.38 1020.42 1020.34 1020.18 1020.10 1020.10 1019.94 1019.82 1019.98 1020.10 1020.10 1020.10 1020.10 1020.02 1019.62 1019.26 1019.02 1018.14 1018.10 1017.90 1017.90 1018.06 1018.06 1017.82 1017.86 1017.70 1017.38 1017.06 1016.66 1016.66 1016.50 1016.46 1016.30 1015.98 1015.54 1015.74 1016.14 1016.34 1016.54 1016.46 1016.30 1016.14 1015.86 1015.54 1015.22 1014.90 1014.58 1014.30 1013.90 1013.50 1013.10 1012.78 1012.46 1012.10 1011.82 1011.62 1011.30 1010.82 1010.86 1011.02 1011.26 1011.58 1011.94 1012.14 1012.42 1012.78 1013.18 1013.58 1013.98
1020.26 1020.42 1020.50 1020.54 1020.50 1020.46 1020.46 1020.42 1020.38 1020.30 1020.22 1020.06 1019.98 1020.14 1020.18 1020.30 1020.26 1020.14 1020.14 1019.98 1019.66 1019.30 1018.58 1018.26 1018.22 1018.14 1018.14 1018.22 1018.06 1018.02 1017.86 1017.50 1017.14 1016.94 1016.94 1016.74 1016.54 1016.38 1016.14 1015.86 1015.58 1016.10 1016.42 1016.50 1016.38 1016.26 1016.10 1015.82 1015.58 1015.30 1015.02 1014.70 1014.38 1014.02 1013.62 1013.22 1012.82 1012.46 1012.14 1011.82 1011.54 1011.30 1011.02 1010.54 1010.58 1010.78 1010.94 1011.34 1011.58 1011.94 1012.46 1012.78 1013.18 1013.46
1020.38 1020.54 1020.66 1020.66 1020.58 1020.54 1020.62 1020.58 1020.50 1020.46 1020.38 1020.26 1020.18 1020.14 1020.10 1020.14 1020.26 1020.18 1020.10 1020.02 1019.82 1019.34 1018.98 1018.58 1018.54 1018.34 1018.34 1018.26 1018.14 1018.18 1018.02 1017.66 1017.18 1017.14 1016.82 1016.74 1016.66 1016.46 1016.26 1015.94 1015.86 1016.26 1016.38 1016.34 1016.26 1016.18 1016.06 1015.82 1015.58 1015.34 1015.10 1014.82 1014.50 1014.14 1013.74 1013.34 1012.94 1012.54 1012.14 1011.78 1011.42 1011.14 1010.94 1010.74 1010.30 1010.30 1010.46 1010.70 1011.06 1011.46 1011.62 1012.10 1012.58 1012.86
1020.42 1020.58 1020.74 1020.78 1020.70 1020.74 1020.78 1020.74 1020.66 1020.66 1020.62 1020.46 1020.38 1020.30 1020.14 1020.06 1020.02 1020.06 1019.98 1019.82 1019.66 1019.46 1019.22 1018.94 1018.66 1018.54 1018.50 1018.46 1018.34 1018.34 1018.42 1017.74 1017.34 1017.10 1016.70 1016.62 1016.50 1016.34 1016.22 1016.06 1016.18 1016.38 1016.30 1016.10 1016.06 1016.06 1015.94 1015.70 1015.50 1015.30 1015.10 1014.86 1014.58 1014.22 1013.86 1013.42 1012.98 1012.54 1012.14 1011.70 1011.34 1010.94 1010.70 1010.50 1010.34 1010.06 1010.02 1010.14 1010.42 1010.78 1011.18 1011.62 1011.98 1012.34
1020.54 1020.66 1020.78 1020.94 1020.98 1021.02 1021.06 1021.02 1020.94 1020.82 1020.74 1020.62 1020.54 1020.50 1020.34 1020.10 1019.94 1019.90 1019.78 1019.66 1019.50 1019.34 1019.14 1019.14 1019.06 1018.74 1018.90 1018.70 1018.46 1018.50 1018.58 1018.06 1017.62 1017.38 1016.82 1016.46 1016.42 1016.26 1016.10 1016.06 1016.34 1016.50 1016.26 1015.90 1015.86 1015.86 1015.74 1015.58 1015.38 1015.30 1015.06 1014.90 1014.62 1014.30 1013.90 1013.46 1013.02 1012.54 1012.02 1011.54 1011.06 1010.66 1010.34 1010.14 1010.02 1009.94 1009.78 1009.70 1009.78 1010.30 1010.62 1011.10 1011.50 1011.90
1020.74 1020.82 1020.90 1021.10 1021.26 1021.34 1021.30 1021.34 1021.34 1021.06 1020.82 1020.66 1020.62 1020.58 1020.50 1020.30 1020.10 1019.82 1019.78 1019.74 1019.50 1019.38 1019.42 1019.26 1019.22 1019.06 1018.86 1018.90 1018.82 1018.54 1018.62 1018.22 1017.94 1017.90 1017.38 1016.90 1016.58 1016.18 1016.34 1016.54 1016.58 1016.74 1016.42 1015.98 1015.90 1016.06 1016.02 1015.66 1015.30 1015.22 1015.02 1014.86 1014.66 1014.34 1013.94 1013.46 1012.98 1012.46 1011.90 1011.34 1010.78 1010.26 1009.86 1009.66 1009.54 1009.50 1009.50 1009.42 1009.38 1009.34 1009.86 1010.38 1010.94 1011.34
1020.78 1020.86 1021.02 1021.30 1021.58 1021.74 1021.86 1021.86 1021.82 1021.66 1021.22 1020.74 1020.66 1020.70 1020.66 1020.58 1020.30 1020.06 1019.98 1019.86 1019.62 1019.58 1019.54 1019.50 1019.46 1019.18 1019.14 1019.10 1019.10 1018.98 1018.98 1018.90 1018.30 1018.22 1018.06 1017.58 1017.14 1016.66 1016.34 1016.70 1016.98 1017.06 1016.82 1016.14 1015.58 1015.70 1015.78 1015.42 1015.18 1015.06 1014.86 1014.82 1014.66 1014.34 1013.94 1013.50 1013.06 1012.38 1011.74 1011.06 1010.42 1009.78 1009.34 1009.02 1008.94 1008.98 1009.10 1009.18 1009.18 1009.10 1009.42 1009.94 1010.26 1010.74
1020.82 1020.98 1021.18 1021.58 1022.02 1022.50 1022.90 1022.98 1022.86 1022.74 1022.34 1021.50 1021.10 1021.14 1021.02 1020.82 1020.58 1020.38 1020.30 1020.18 1020.02 1019.82 1019.74 1019.82 1019.66 1019.54 1019.54 1019.62 1019.62 1019.54 1019.58 1019.66 1019.14 1018.54 1018.22 1017.82 1017.50 1017.10 1016.74 1016.58 1016.90 1017.30 1017.22 1016.34 1015.82 1015.90 1016.02 1015.58 1015.26 1015.06 1014.86 1014.74 1014.58 1014.34 1014.14 1013.58 1012.90 1012.34 1011.66 1010.86 1010.06 1009.30 1008.74 1008.46 1008.34 1008.38 1008.50 1008.74 1008.90 1008.94 1008.90 1009.38 1009.78 1010.18
1020.86 1021.14 1021.54 1022.18 1022.62 1022.86 1022.94 1023.06 1023.10 1022.98 1022.82 1022.74 1022.50 1022.22 1021.86 1021.42 1020.94 1020.82 1020.74 1020.58 1020.38 1020.02 1020.02 1020.22 1020.18 1020.02 1020.26 1020.22 1020.10 1020.06 1019.98 1019.90 1019.38 1018.70 1018.34 1018.26 1017.90 1017.66 1017.34 1016.90 1016.86 1017.26 1017.34 1016.78 1015.98 1015.98 1016.10 1015.86 1015.50 1015.26 1015.14 1014.94 1014.82 1014.66 1014.42 1014.14 1013.58 1012.66 1011.70 1010.74 1009.86 1009.06 1008.38 1008.02 1007.94 1007.94 1007.98 1008.10 1008.42 1008.66 1008.66 1008.86 1009.30 1009.86
1020.98 1021.18 1021.42 1021.90 1022.54 1022.74 1022.82 1022.94 1022.98 1022.94 1023.06 1023.10 1023.10 1023.10 1023.02 1022.86 1022.30 1021.50 1021.14 1021.14 1020.94 1020.66 1020.38 1020.50 1020.62 1020.70 1020.82 1020.66 1020.38 1020.38 1020.38 1020.14 1019.78 1018.86 1018.42 1018.38 1018.30 1018.26 1018.14 1017.98 1017.14 1017.26 1017.58 1017.06 1016.30 1016.02 1016.18 1015.90 1015.54 1015.42 1015.38 1015.14 1014.98 1015.02 1014.94 1014.50 1013.58 1012.66 1011.66 1010.66 1009.78 1009.02 1008.30 1007.86 1007.70 1007.66 1007.70 1007.66 1007.86 1008.22 1008.62 1008.70 1009.06 1009.50
1020.86 1021.10 1021.26 1021.46 1021.66 1021.70 1021.74 1021.98 1022.46 1022.74 1022.86 1022.94 1023.02 1023.10 1023.02 1023.02 1023.18 1023.14 1022.78 1022.10 1021.70 1021.50 1021.18 1021.02 1021.14 1021.10 1021.26 1020.94 1020.70 1020.82 1020.74 1020.62 1019.86 1018.94 1018.50 1018.66 1018.62 1018.50 1018.38 1018.18 1017.94 1017.46 1017.62 1017.30 1016.62 1015.98 1016.22 1016.02 1015.70 1015.58 1015.58 1015.34 1015.18 1015.22 1015.14 1014.54 1013.78 1012.82 1011.86 1010.90 1009.98 1009.22 1008.42 1007.82 1007.54 1007.42 1007.46 1007.50 1007.46 1007.78 1008.22 1008.50 1008.90 1009.30
1020.90 1021.10 1021.34 1021.58 1021.78 1022.02 1022.02 1021.50 1021.34 1021.66 1022.42 1022.82 1022.90 1022.94 1023.02 1022.90 1022.94 1023.02 1023.06 1023.02 1022.74 1022.02 1021.62 1021.66 1021.58 1021.82 1021.78 1021.34 1021.26 1021.30 1021.14 1020.78 1019.90 1019.18 1018.74 1018.82 1018.66 1018.42 1018.38 1018.26 1017.82 1017.62 1017.70 1017.54 1017.10 1016.22 1016.06 1016.22 1015.82 1015.70 1015.74 1015.42 1015.26 1015.18 1015.02 1014.66 1013.94 1013.06 1012.06 1011.06 1010.26 1009.50 1008.70 1007.94 1007.42 1007.22 1007.22 1007.26 1007.34 1007.42 1007.86 1008.02 1008.46 1008.94
1021.02 1021.14 1021.26 1021.50 1021.66 1021.66 1021.54 1021.50 1021.46 1021.50 1021.46 1021.70 1022.10 1022.26 1022.14 1022.14 1022.66 1022.70 1022.82 1022.90 1022.94 1022.54 1022.02 1021.94 1021.94 1021.94 1022.06 1022.10 1021.90 1021.54 1021.30 1020.90 1020.26 1019.66 1019.30 1018.94 1018.54 1018.26 1018.06 1017.90 1017.54 1017.46 1017.50 1017.74 1017.50 1016.46 1016.10 1016.38 1016.14 1015.82 1015.82 1015.46 1015.30 1015.22 1015.14 1014.70 1014.02 1013.22 1012.38 1011.54 1010.70 1009.82 1008.98 1008.34 1007.62 1007.14 1007.06 1007.10 1007.22 1007.38 1007.66 1007.78 1008.22 1008.62
1021.14 1021.14 1021.26 1021.38 1021.50 1021.62 1021.66 1021.78 1021.90 1021.50 1021.50 1021.62 1021.74 1021.98 1022.14 1022.22 1022.30 1022.42 1022.62 1022.66 1022.54 1022.30 1022.06 1022.02 1022.02 1022.02 1022.22 1022.34 1022.26 1022.06 1021.70 1021.06 1020.30 1019.78 1019.34 1018.82 1018.42 1017.54 1017.10 1017.06 1017.18 1017.18 1017.78 1018.02 1017.70 1017.34 1016.54 1016.50 1016.34 1016.10 1015.86 1015.66 1015.38 1015.26 1014.98 1014.74 1014.38 1013.78 1013.18 1012.50 1011.66 1010.82 1010.06 1009.26 1008.34 1007.42 1007.06 1007.14 1007.22 1007.42 1007.74 1007.90 1008.02 1008.62
1021.22 1021.22 1021.34 1021.42 1021.54 1021.74 1021.98 1022.38 1022.38 1022.18 1021.78 1021.46 1021.66 1021.86 1022.02 1022.02 1022.06 1022.50 1023.02 1023.22 1023.30 1023.14 1022.86 1022.74 1022.74 1022.66 1023.02 1023.22 1022.90 1022.66 1022.22 1021.30 1020.42 1019.06 1018.50 1018.30 1017.82 1017.30 1017.10 1017.22 1017.18 1017.22 1017.66 1018.26 1018.34 1017.74 1016.90 1016.74 1016.50 1016.38 1016.06 1016.06 1015.82 1015.54 1015.22 1014.90 1014.70 1014.30 1013.82 1013.26 1012.54 1011.78 1010.98 1010.22 1009.38 1008.66 1008.02 1007.62 1007.58 1007.86 1008.22 1008.54 1008.58 1009.10
1021.30 1021.30 1021.30 1021.38 1021.54 1021.70 1022.06 1022.54 1022.62 1022.46 1022.42 1021.58 1021.66 1021.74 1021.86 1021.94 1021.86 1022.06 1022.78 1023.14 1023.02 1022.98 1023.06 1023.06 1023.14 1023.14 1023.02 1022.98 1022.94 1022.66 1022.30 1021.82 1020.82 1019.46 1018.94 1018.78 1018.18 1017.82 1017.74 1017.74 1017.62 1017.30 1017.66 1018.50 1018.70 1018.02 1017.26 1017.06 1016.74 1016.50 1016.18 1016.46 1016.42 1016.06 1015.86 1015.54 1015.22 1014.78 1014.30 1013.90 1013.46 1012.94 1012.38 1011.62 1010.82 1010.02 1009.34 1008.90 1008.70 1008.46 1008.54 1008.94 1009.46 1010.06
1021.46 1021.90 1022.14 1021.78 1021.50 1021.74 1022.22 1022.78 1022.86 1022.70 1022.50 1021.66 1021.78 1021.70 1021.74 1021.82 1021.78 1021.90 1021.86 1022.26 1022.58 1022.58 1022.58 1022.46 1022.46 1022.62 1022.50 1022.34 1022.54 1022.42 1021.94 1021.74 1021.10 1020.46 1020.26 1019.70 1018.62 1018.38 1018.26 1018.38 1017.90 1017.30 1017.74 1018.94 1018.98 1018.18 1017.42 1017.30 1017.06 1016.90 1016.26 1015.90 1016.66 1016.62 1016.46 1016.30 1015.86 1015.30 1014.58 1014.22 1013.94 1013.58 1013.14 1012.58 1011.86 1011.14 1010.58 1010.10 1009.86 1009.78 1009.74 1009.82 1010.22 1010.74
1021.54 1021.98 1022.26 1022.58 1022.42 1022.34 1022.66 1023.02 1023.06 1022.94 1022.54 1021.78 1021.98 1021.86 1021.82 1021.82 1021.90 1022.02 1022.06 1021.94 1021.70 1021.70 1021.78 1021.82 1021.94 1022.10 1022.06 1021.70 1021.54 1021.54 1021.74 1021.62 1021.42 1021.18 1020.90 1020.26 1019.54 1019.10 1018.82 1018.58 1018.22 1017.90 1018.14 1019.10 1019.22 1018.78 1017.66 1017.74 1017.46 1017.26 1016.98 1016.54 1016.78 1017.06 1017.02 1016.86 1016.66 1016.26 1015.62 1015.02 1014.54 1014.26 1013.82 1013.38 1012.82 1012.18 1011.66 1011.30 1011.10 1010.90 1010.90 1011.14 1011.18 1011.42
1021.42 1021.62 1021.94 1022.70 1023.18 1023.18 1023.22 1023.26 1023.26 1023.10 1022.94 1022.30 1022.18 1022.14 1022.14 1022.06 1022.06 1021.86 1022.02 1022.34 1021.94 1021.66 1021.62 1021.58 1021.42 1021.30 1021.18 1021.26 1021.06 1020.90 1021.26 1021.46 1021.50 1021.42 1021.18 1020.90 1020.50 1020.02 1019.50 1019.18 1019.06 1019.18 1019.18 1019.34 1019.46 1018.90 1018.14 1018.22 1017.98 1017.54 1017.66 1017.90 1018.02 1017.38 1017.30 1017.34 1017.34 1017.10 1016.66 1016.10 1015.58 1015.14 1014.54 1013.98 1013.58 1013.30 1012.98 1012.70 1012.46 1012.30 1012.30 1012.30 1012.30 1012.22
1021.22 1021.30 1021.42 1021.98 1023.34 1023.42 1023.42 1023.42 1023.42 1023.38 1023.18 1022.90 1022.54 1022.70 1022.70 1022.82 1022.82 1022.66 1021.66 1022.02 1022.14 1021.58 1021.50 1021.30 1021.34 1021.06 1020.94 1021.02 1020.98 1021.06 1021.26 1021.66 1021.66 1021.46 1021.38 1021.22 1021.06 1020.86 1020.58 1020.18 1019.86 1019.70 1019.62 1019.62 1019.58 1018.94 1018.62 1018.74 1018.70 1018.06 1017.86 1017.82 1018.26 1017.98 1017.78 1017.74 1017.74 1017.62 1017.34 1017.06 1016.66 1016.14 1015.74 1015.22 1014.78 1014.46 1014.30 1014.18 1013.98 1013.82 1013.66 1013.50 1013.46 1013.42
1020.86 1021.10 1021.42 1022.02 1023.34 1023.58 1023.54 1023.54 1023.54 1023.54 1023.38 1023.10 1022.78 1023.38 1023.54 1023.34 1023.02 1022.38 1021.62 1021.46 1021.30 1021.26 1021.18 1021.14 1021.26 1021.14 1021.10 1021.26 1021.34 1021.26 1021.42 1021.66 1021.74 1021.54 1021.42 1021.38 1021.30 1021.14 1021.06 1020.94 1020.78 1020.50 1020.26 1019.66 1019.54 1019.30 1019.10 1019.22 1019.26 1018.78 1018.42 1018.26 1018.22 1018.42 1018.34 1017.90 1017.82 1017.82 1017.74 1017.50 1017.30 1017.06 1016.70 1016.46 1015.98 1015.70 1015.50 1015.38 1015.34 1015.34 1015.18 1014.86 1014.78 1014.74
1021.10 1021.42 1021.98 1023.02 1023.74 1023.66 1023.70 1023.66 1023.62 1023.58 1023.50 1023.18 1023.38 1023.74 1023.54 1023.18 1022.78 1022.42 1021.54 1021.58 1021.46 1021.38 1021.42 1021.46 1021.54 1021.58 1021.50 1021.50 1021.54 1021.54 1021.54 1021.50 1021.58 1021.46 1021.38 1021.30 1021.18 1021.14 1021.06 1021.02 1020.86 1020.70 1020.34 1019.66 1019.42 1019.46 1019.38 1019.30 1019.26 1019.14 1018.82 1018.50 1018.58 1018.38 1018.34 1018.18 1017.94 1017.78 1017.86 1017.90 1017.66 1017.46 1017.30 1017.10 1016.98 1016.86 1016.54 1016.22 1016.02 1015.78 1015.50 1015.54 1015.70 1015.58
1021.22 1021.54 1022.18 1023.14 1023.82 1023.78 1023.78 1023.78 1023.74 1023.70 1023.46 1023.26 1023.66 1023.62 1023.26 1022.86 1022.34 1021.50 1021.46 1021.50 1021.62 1021.58 1021.58 1021.62 1021.74 1021.86 1021.90 1021.86 1021.78 1021.74 1021.62 1021.58 1021.30 1021.18 1021.34 1021.14 1020.98 1021.06 1020.98 1020.82 1020.74 1020.66 1020.34 1019.86 1019.50 1019.34 1019.38 1019.14 1018.94 1018.98 1018.90 1018.58 1018.42 1018.54 1018.38 1018.22 1018.26 1018.26 1017.98 1017.98 1018.02 1017.86 1017.74 1017.58 1017.54 1017.46 1017.34 1017.22 1017.06 1016.78 1016.50 1016.46 1016.26 1016.02
1022.22 1022.94 1023.42 1023.78 1023.82 1023.86 1023.82 1023.78 1023.78 1023.74 1023.78 1023.90 1023.74 1023.46 1022.94 1022.46 1021.62 1021.58 1021.62 1021.70 1021.66 1021.82 1021.90 1021.90 1021.90 1021.98 1022.02 1022.10 1022.18 1022.06 1021.82 1021.66 1021.42 1021.18 1021.02 1021.14 1021.10 1020.90 1020.82 1020.82 1020.70 1020.66 1020.54 1020.26 1019.86 1019.62 1019.34 1018.94 1018.62 1018.58 1018.74 1018.46 1018.18 1018.30 1018.10 1018.34 1018.54 1018.62 1018.54 1018.18 1018.30 1018.30 1018.10 1018.02 1017.98 1017.98 1017.90 1017.82 1017.82 1017.86 1017.90 1017.74 1017.62 1017.54
1023.34 1023.54 1023.74 1023.82 1023.86 1023.78 1023.78 1023.46 1022.90 1022.78 1023.34 1023.78 1023.58 1023.14 1022.70 1021.90 1021.90 1021.74 1021.74 1021.86 1021.90 1021.94 1022.06 1022.14 1022.18 1022.06 1021.98 1021.98 1022.02 1021.86 1021.62 1021.42 1021.42 1021.34 1021.06 1020.82 1020.90 1020.78 1020.54 1020.26 1020.34 1020.42 1020.46 1020.38 1020.18 1019.94 1019.74 1019.66 1019.46 1018.98 1018.70 1018.66 1018.38 1018.14 1017.90 1017.98 1018.30 1018.50 1018.70 1018.58 1018.54 1018.58 1018.42 1018.38 1018.34 1018.30 1018.34 1018.30 1018.30 1018.46 1018.54 1018.62 1018.66 1018.54
1023.18 1023.62 1023.54 1023.30 1023.38 1023.14 1023.42 1023.34 1023.18 1023.30 1023.58 1023.50 1023.18 1022.50 1022.14 1022.14 1022.10 1022.22 1022.18 1022.18 1022.22 1022.26 1022.14 1022.14 1022.10 1022.06 1021.94 1021.86 1021.74 1021.62 1021.50 1021.46 1021.42 1021.30 1021.14 1020.82 1020.86 1020.70 1020.42 1020.14 1020.02 1020.06 1020.26 1020.30 1020.38 1020.38 1020.14 1019.94 1019.74 1019.62 1019.38 1019.02 1018.74 1018.70 1018.34 1017.98 1017.98 1018.02 1018.34 1018.62 1018.78 1019.10 1019.02 1018.82 1018.78 1018.78 1018.74 1018.78 1018.86 1018.94 1018.98 1019.10 1019.18 1019.18
1022.66 1023.06 1023.54 1023.46 1023.10 1023.10 1023.02 1022.82 1022.66 1022.62 1022.54 1022.38 1022.18 1022.06 1022.14 1022.26 1022.54 1022.74 1022.90 1022.66 1022.26 1022.34 1022.18 1022.14 1022.10 1022.02 1021.94 1021.86 1021.74 1021.62 1021.58 1021.50 1021.46 1021.30 1021.18 1021.06 1020.86 1020.66 1020.34 1020.18 1020.14 1019.86 1019.86 1020.06 1020.14 1020.30 1020.34 1020.30 1020.10 1019.82 1019.78 1019.66 1019.42 1018.90 1018.34 1018.34 1018.30 1018.18 1018.22 1018.22 1018.34 1018.74 1018.98 1019.06 1019.10 1019.14 1019.10 1019.14 1019.22 1019.38 1019.50 1019.62 1019.70 1019.82
1022.66 1022.70 1022.58 1022.26 1022.38 1022.26 1022.22 1022.10 1021.94 1022.06 1022.14 1022.22 1022.34 1022.42 1022.02 1021.90 1021.86 1021.90 1021.90 1022.06 1022.42 1022.54 1022.30 1022.34 1022.30 1022.18 1021.86 1021.86 1021.70 1021.58 1021.54 1021.66 1021.58 1021.50 1021.22 1021.06 1020.82 1020.58 1020.38 1020.42 1020.30 1020.18 1019.98 1019.90 1019.98 1019.98 1020.06 1020.14 1020.26 1020.18 1020.02 1019.90 1019.86 1019.54 1018.86 1018.50 1018.50 1018.38 1018.38 1018.42 1018.42 1018.42 1018.42 1018.66 1018.82 1018.98 1019.06 1019.14 1019.34 1019.50 1019.74 1019.82 1019.94 1020.10
1022.02 1021.98 1021.86 1021.98 1021.90 1021.98 1021.86 1021.86 1021.90 1021.90 1021.98 1022.10 1022.10 1022.26 1022.58 1022.10 1022.06 1022.18 1022.18 1022.26 1022.50 1022.78 1022.70 1022.42 1022.30 1022.38 1022.18 1021.94 1021.90 1021.74 1021.70 1021.42 1021.34 1021.54 1021.42 1021.06 1020.82 1020.66 1020.50 1020.46 1020.38 1020.30 1020.14 1019.98 1019.94 1019.98 1019.78 1019.70 1019.54 1019.58 1019.82 1020.02 1019.98 1019.94 1019.78 1019.22 1018.74 1018.74 1018.66 1018.58 1018.50 1018.62 1018.74 1018.58 1018.54 1018.38 1018.30 1018.50 1018.82 1019.34 1019.58 1019.78 1019.94 1020.10
1022.02 1022.06 1022.02 1021.98 1021.90 1021.94 1021.86 1022.14 1022.14 1022.30 1022.26 1022.38 1022.18 1022.06 1022.10 1022.02 1022.54 1022.54 1022.22 1022.54 1022.70 1022.78 1022.58 1022.66 1022.54 1022.54 1022.26 1022.22 1022.22 1022.10 1022.06 1021.82 1021.26 1021.22 1021.14 1020.98 1020.90 1020.78 1020.82 1020.74 1020.62 1020.46 1020.22 1020.10 1019.98 1019.94 1019.78 1019.50 1019.18 1018.78 1018.62 1018.86 1019.34 1019.94 1020.34 1020.22 1019.54 1018.98 1018.78 1018.86 1018.82 1018.86 1018.94 1018.82 1018.78 1018.78 1018.70 1018.54 1018.46 1018.74 1019.06 1019.42 1019.74 1019.94
1021.82 1021.78 1021.86 1021.86 1021.82 1021.82 1022.06 1022.38 1022.38 1022.26 1022.26 1022.30 1022.18 1022.22 1022.22 1022.22 1022.46 1022.50 1022.38 1022.86 1022.70 1022.50 1022.50 1022.70 1022.66 1022.66 1022.62 1022.46 1022.46 1022.34 1022.26 1022.06 1021.50 1021.42 1021.26 1020.90 1020.94 1020.82 1020.78 1021.10 1020.98 1020.50 1020.22 1020.18 1020.06 1019.98 1019.82 1019.58 1019.34 1019.10 1018.90 1018.58 1018.62 1018.90 1019.78 1020.46 1020.42 1019.90 1019.18 1019.14 1019.10 1019.10 1019.02 1018.94 1018.86 1018.66 1018.54 1018.54 1018.58 1018.78 1019.10 1019.18 1019.42 1019.62
1021.66 1021.66 1021.54 1021.70 1021.86 1022.02 1022.14 1022.26 1022.30 1022.30 1022.30 1022.26 1022.22 1022.10 1022.26 1022.30 1022.38 1022.38 1022.90 1023.18 1022.86 1022.82 1022.86 1022.98 1022.66 1022.74 1022.58 1022.58 1022.46 1022.18 1022.02 1021.90 1021.74 1021.58 1021.34 1020.90 1020.82 1020.74 1020.78 1020.78 1020.70 1020.46 1020.14 1020.14 1020.10 1020.02 1019.90 1019.70 1019.54 1019.38 1019.30 1019.14 1018.82 1019.06 1019.42 1019.90 1020.34 1020.42 1019.98 1019.46 1019.42 1019.34 1019.34 1019.06 1018.98 1018.90 1018.78 1018.66 1018.66 1018.70 1018.90 1019.06 1019.34 1019.50
1021.78 1021.54 1021.46 1021.58 1021.70 1021.82 1022.02 1022.22 1022.54 1022.50 1022.38 1022.34 1022.34 1022.30 1022.30 1022.30 1022.42 1022.74 1022.78 1022.54 1022.62 1022.74 1022.74 1022.58 1022.62 1022.70 1022.62 1022.54 1022.46 1022.26 1022.06 1021.82 1021.66 1021.46 1021.38 1021.06 1021.06 1020.98 1020.94 1020.94 1020.82 1020.46 1020.30 1019.98 1019.86 1019.74 1019.70 1019.62 1019.70 1019.66 1019.54 1019.70 1019.58 1019.66 1019.66 1019.18 1019.50 1020.14 1020.34 1020.14 1019.70 1019.62 1019.42 1019.18 1019.06 1019.06 1018.98 1018.86 1018.86 1018.94 1018.90 1019.14 1019.26 1019.62
1021.42 1021.50 1021.70 1021.62 1021.82 1021.90 1022.14 1022.30 1022.46 1022.54 1022.54 1022.46 1022.46 1022.38 1022.34 1022.30 1022.42 1022.50 1022.58 1022.74 1022.82 1022.74 1022.74 1022.74 1022.78 1022.94 1022.94 1022.62 1022.50 1022.42 1022.18 1022.02 1021.94 1021.74 1021.66 1021.38 1021.26 1021.22 1021.18 1021.22 1021.22 1020.82 1020.54 1020.34 1020.02 1019.62 1019.42 1019.26 1019.70 1019.94 1019.94 1019.98 1020.18 1020.18 1020.22 1020.06 1019.58 1019.50 1020.14 1020.38 1020.14 1019.82 1019.54 1019.22 1019.22 1018.98 1018.94 1018.98 1019.10 1019.22 1019.34 1019.78 1020.30 1020.54
1021.38 1021.42 1021.42 1021.54 1021.78 1021.90 1022.10 1022.34 1022.42 1022.42 1022.58 1022.58 1022.46 1022.46 1022.54 1022.54 1022.50 1022.54 1022.58 1022.70 1022.82 1022.98 1022.90 1022.90 1023.10 1023.18 1022.82 1022.70 1022.74 1022.50 1022.22 1021.90 1021.86 1021.70 1021.66 1021.62 1021.58 1021.54 1021.46 1021.66 1021.46 1021.02 1020.66 1020.58 1020.38 1019.70 1019.42 1019.46 1020.10 1020.46 1020.54 1020.46 1020.46 1020.38 1020.22 1020.02 1019.78 1019.42 1019.70 1020.14 1020.26 1020.14 1019.74 1019.50 1019.38 1019.30 1018.94 1018.74 1018.90 1019.02 1019.10 1019.38 1019.74 1020.10
1021.46 1021.58 1021.62 1021.62 1021.78 1021.98 1022.14 1022.26 1022.34 1022.50 1022.54 1022.66 1022.82 1023.14 1022.86 1022.74 1022.70 1022.82 1023.02 1023.22 1023.30 1023.22 1022.98 1022.86 1022.94 1023.06 1022.90 1022.86 1022.74 1022.66 1022.42 1022.14 1021.90 1021.78 1021.82 1021.86 1021.74 1021.70 1021.74 1021.82 1021.14 1020.78 1020.90 1020.82 1020.50 1020.10 1019.70 1020.02 1020.86 1021.22 1021.14 1020.62 1020.30 1020.10 1019.82 1019.34 1018.74 1018.42 1018.42 1019.06 1019.94 1020.06 1020.14 1020.14 1019.86 1019.50 1019.26 1019.22 1019.10 1018.94 1018.74 1018.62 1018.54 1019.02
1021.38 1021.38 1021.54 1021.70 1021.78 1021.94 1022.10 1022.34 1022.46 1022.58 1022.62 1022.70 1022.66 1022.74 1022.78 1022.82 1022.94 1023.54 1023.42 1023.54 1023.42 1023.34 1023.14 1022.78 1022.58 1022.58 1022.50 1022.50 1022.46 1022.38 1022.38 1022.34 1022.18 1022.06 1022.10 1022.10 1021.86 1021.66 1021.54 1021.26 1021.02 1021.14 1021.30 1021.02 1020.70 1020.30 1020.02 1020.10 1020.62 1020.74 1020.46 1020.26 1020.14 1020.06 1019.74 1019.34 1019.26 1018.90 1018.86 1018.74 1019.14 1019.70 1019.86 1019.98 1020.06 1020.06 1019.86 1019.50 1019.18 1018.98 1018.90 1018.70 1018.46 1018.42
1021.42 1021.26 1021.54 1021.74 1021.94 1022.06 1022.18 1022.46 1022.50 1022.50 1022.46 1022.54 1022.62 1022.74 1022.78 1022.86 1022.82 1023.02 1022.70 1022.66 1022.86 1022.74 1022.58 1022.58 1022.50 1022.46 1022.42 1022.38 1022.30 1022.38 1022.34 1022.22 1022.14 1022.18 1022.34 1022.30 1022.02 1021.86 1021.62 1021.34 1021.46 1021.46 1021.30 1021.10 1020.74 1020.42 1020.30 1020.10 1019.94 1019.94 1020.06 1020.02 1019.82 1019.82 1019.62 1019.38 1019.42 1019.34 1018.94 1018.50 1018.14 1018.90 1019.50 1019.70 1019.74 1019.78 1019.82 1019.90 1019.90 1019.74 1019.22 1018.86 1018.50 1018.34
1021.38 1021.50 1021.54 1021.74 1022.02 1022.26 1022.42 1022.42 1022.34 1022.42 1022.54 1022.54 1022.70 1022.82 1022.82 1022.82 1022.82 1022.90 1022.90 1022.78 1022.74 1022.70 1022.82 1022.82 1022.70 1022.62 1022.66 1022.58 1022.50 1022.42 1022.26 1022.14 1022.26 1022.42 1022.30 1022.10 1022.06 1021.94 1021.70 1021.58 1021.54 1021.46 1021.34 1020.98 1020.62 1020.46 1020.34 1020.22 1019.98 1019.86 1019.90 1019.86 1019.78 1019.66 1019.54 1019.62 1019.42 1019.14 1019.02 1018.90 1019.02 1019.10 1018.82 1018.78 1019.18 1019.50 1019.62 1019.66 1019.62 1019.58 1019.50 1019.50 1019.38 1019.10
1021.38 1021.54 1021.62 1021.82 1021.98 1022.14 1022.30 1022.38 1022.46 1022.54 1022.66 1022.78 1022.82 1022.82 1022.94 1022.90 1022.78 1022.78 1022.82 1023.02 1022.86 1022.98 1023.02 1022.90 1022.86 1022.82 1022.74 1022.66 1022.58 1022.50 1022.38 1022.54 1022.50 1022.18 1021.98 1021.78 1021.58 1021.54 1021.46 1021.42 1021.30 1021.18 1021.10 1020.90 1020.90 1020.66 1020.30 1020.18 1020.06 1019.94 1019.82 1019.54 1019.46 1019.46 1019.42 1019.50 1019.46 1019.42 1019.34 1019.30 1019.22 1018.94 1018.62 1018.42 1018.18 1018.10 1018.42 1018.50 1018.62 1018.82 1018.90 1018.94 1018.94 1018.94
Wind_Speed
4 4 5 4 4 4 3 3 3 3 3 4 4 4 5 5 6 7 7 6 6 8 9 8 8 11 11 9 9 9 9 8 10 9 8 8 8 5 6 10 13 17 18 19 20 19 20 20 20 21 21 21 21 21 20 14 10 17 20 23 25 23 23 21 19 22 26 25 26 22 23 24 24 23
4 4 4 4 4 4 3 3 3 4 4 4 4 4 4 4 5 6 7 7 6 7 8 9 9 10 11 9 9 9 9 6 10 9 8 8 10 4 3 9 11 16 15 16 19 20 20 21 21 21 22 22 22 21 21 20 13 16 22 25 24 22 23 24 20 23 23 24 22 21 22 24 24 24
4 4 5 5 4 3 3 3 4 5 5 5 4 5 4 4 5 6 6 6 5 7 8 8 9 10 11 9 8 9 9 8 8 10 8 9 12 7 4 8 12 16 14 16 19 21 22 21 21 21 22 22 23 22 23 22 23 17 19 21 22 22 22 22 22 24 24 20 21 23 23 24 25 24
4 5 6 5 4 3 3 4 4 5 5 5 5 5 5 4 5 5 5 6 7 6 7 8 8 10 11 10 10 11 9 9 10 10 8 9 10 7 4 7 13 15 15 13 15 18 18 21 22 22 22 23 23 24 23 22 21 19 18 15 20 21 23 23 24 23 24 26 26 26 24 23 24 25
5 5 6 6 5 4 5 5 4 5 5 4 5 5 5 5 5 6 6 6 7 6 7 7 8 9 10 9 11 11 10 10 9 9 8 8 9 8 8 4 15 15 14 10 13 15 15 17 20 22 22 22 23 23 21 21 21 20 17 17 16 19 21 24 24 26 24 24 26 25 24 24 24 25
5 6 6 7 6 6 6 5 5 5 5 5 5 5 5 5 5 5 6 6 7 8 7 7 7 8 10 9 10 11 11 11 10 10 9 9 9 9 8 10 7 18 13 8 10 14 13 14 15 17 18 18 20 20 21 20 20 20 19 17 15 17 20 22 22 24 24 22 24 25 24 23 25 24
7 6 6 6 5 4 5 5 5 5 5 4 4 5 4 5 5 5 6 6 7 8 7 8 8 9 9 9 10 12 10 10 10 10 9 9 8 8 9 9 8 16 12 5 9 13 13 13 12 15 16 17 19 20 20 20 20 19 18 18 17 15 17 21 22 23 25 24 24 24 25 23 25 26
6 6 6 6 6 5 6 6 5 6 5 5 4 4 4 4 5 5 5 5 6 7 7 8 8 8 9 9 9 10 10 10 9 9 8 8 9 9 9 10 10 11 11 5 8 12 13 12 12 14 14 16 19 20 21 21 19 20 19 19 18 17 14 17 21 22 25 28 26 25 29 26 27 29
7 6 7 7 6 6 6 6 6 6 7 5 5 5 4 4 4 4 4 5 5 6 7 7 7 7 8 8 8 10 10 10 9 9 9 9 9 9 9 10 10 11 13 9 12 13 13 14 12 14 13 15 19 19 21 20 21 21 21 20 20 18 16 15 18 21 24 27 26 27 28 26 29 29
6 6 7 7 7 7 7 7 6 5 6 5 5 5 5 5 4 4 4 5 5 6 6 6 7 7 8 8 8 10 10 9 10 9 9 9 10 10 10 11 10 10 10 10 10 13 14 15 13 14 12 16 18 19 20 20 21 22 21 21 20 20 17 16 16 19 21 25 27 24 26 25 27 28
6 6 6 7 7 8 8 7 7 6 5 5 6 6 5 5 5 4 4 5 5 5 6 5 6 7 7 8 9 10 10 9 10 11 10 10 10 9 10 11 11 11 11 10 7 11 12 12 13 13 13 15 18 19 21 21 24 24 23 22 21 21 19 17 16 17 20 23 25 28 26 27 27 29
5 6 7 7 8 9 8 8 8 8 6 5 6 6 5 5 4 4 5 5 5 5 6 7 7 7 8 8 8 8 9 9 10 10 10 10 11 11 9 10 12 12 11 12 12 13 14 14 14 15 15 16 17 19 23 26 27 27 25 23 22 20 19 17 16 17 18 21 24 25 25 26 29 30
5 6 6 7 8 8 8 9 7 8 8 7 7 7 6 5 5 5 5 5 5 5 6 7 7 7 8 9 10 10 10 10 11 9 10 9 10 10 9 9 11 12 11 11 12 12 14 14 14 14 15 15 18 19 26 26 30 29 26 23 22 20 17 16 16 16 17 19 22 25 25 26 28 28
5 6 7 6 9 9 7 6 6 8 11 11 9 8 8 7 5 5 5 5 5 5 6 7 8 8 9 9 10 10 10 9 10 9 9 10 10 9 9 8 10 12 12 11 12 13 12 13 14 14 15 15 15 16 19 21 24 28 26 24 23 22 17 13 15 16 17 19 21 24 26 27 28 29
5 5 5 6 9 10 9 7 7 7 7 7 7 8 9 10 9 6 6 6 6 6 6 7 8 8 8 9 9 9 10 9 10 9 9 9 9 10 10 10 10 11 13 11 11 12 13 13 14 14 14 15 14 15 20 25 28 30 27 26 25 24 21 13 13 14 16 19 21 24 24 25 27 28
5 5 5 5 4 3 3 6 8 8 8 8 6 5 7 9 8 8 7 6 6 7 6 7 7 8 8 9 9 10 10 9 10 9 9 9 9 9 9 9 10 11 13 12 10 10 12 12 13 14 14 14 14 13 20 26 27 28 28 28 27 26 23 19 11 13 14 17 19 21 23 25 25 27
5 5 5 5 4 4 8 2 5 6 8 8 7 7 7 8 7 7 6 5 5 5 6 7 7 7 8 9 9 10 11 10 10 10 9 8 8 7 7 7 9 10 11 11 10 10 12 12 12 13 14 14 14 14 20 25 25 27 30 29 28 27 26 24 16 11 13 15 17 20 22 26 27 27
5 5 5 5 5 4 4 4 5 7 7 5 4 4 2 5 6 8 9 7 8 5 5 6 6 6 7 7 9 11 11 10 9 10 8 9 8 8 7 5 6 7 10 12 11 9 12 12 11 12 13 13 14 14 16 23 26 27 30 31 31 30 30 28 23 11 11 12 14 17 20 25 26 27
5 5 5 5 6 5 6 6 7 5 6 5 5 4 4 4 6 7 8 7 7 6 5 5 5 6 6 7 9 10 10 10 8 8 10 8 8 8 4 1 5 7 10 13 10 9 11 11 11 10 11 12 13 15 17 20 24 25 27 29 30 30 29 28 26 17 5 7 12 13 16 21 24 24
5 5 5 6 7 7 7 4 6 8 6 6 5 5 4 3 3 4 3 3 4 4 5 5 5 6 5 5 6 8 9 10 10 10 6 6 7 7 7 8 7 8 8 13 11 10 10 11 11 9 9 10 13 15 15 19 24 24 23 27 29 30 30 29 27 25 18 10 10 10 10 9 12 16
5 5 5 6 6 7 6 4 4 8 10 4 6 5 4 3 3 3 5 6 9 8 4 1 4 4 6 9 10 10 9 10 12 8 7 9 9 8 8 8 8 7 9 12 12 10 10 11 11 10 6 9 12 13 14 14 19 22 21 22 26 26 27 27 27 25 24 22 16 15 18 17 14 11
5 5 10 9 5 7 6 5 5 9 9 6 6 5 4 4 4 4 4 4 7 11 10 10 10 10 9 11 10 10 5 9 13 10 9 10 8 8 8 8 8 7 9 11 13 10 10 10 10 10 8 6 10 12 12 15 16 21 21 22 23 25 25 26 28 27 26 25 23 22 18 17 16 10
7 5 5 9 10 7 8 6 5 9 10 5 7 6 4 4 5 5 5 5 4 3 1 2 3 6 10 6 2 1 7 11 10 10 9 9 9 8 8 8 8 7 8 12 15 11 10 11 10 10 9 8 8 11 12 13 15 16 16 17 18 24 23 24 27 29 29 27 26 24 22 17 12 9
7 6 6 6 8 7 8 5 4 7 10 7 7 6 5 5 5 3 5 6 5 4 4 4 4 4 5 6 3 6 9 9 10 10 10 9 9 8 8 8 8 7 8 11 14 10 8 9 10 10 9 8 7 9 10 12 14 14 15 16 15 20 21 21 22 27 29 29 28 26 25 22 14 10
7 6 5 5 7 6 6 4 3 5 8 8 6 6 6 4 4 8 2 3 9 2 2 2 3 4 5 5 6 6 7 8 8 8 9 9 9 9 8 8 8 7 8 10 11 10 9 10 10 10 9 8 8 9 9 10 12 12 13 14 15 16 14 16 15 16 20 24 26 27 26 25 23 13
6 5 5 5 5 4 6 4 3 3 5 7 4 3 3 6 8 5 4 4 4 4 4 5 5 5 5 5 6 6 6 7 8 7 8 8 8 7 8 8 8 8 9 10 11 10 9 9 10 9 9 9 8 9 10 9 10 11 11 11 11 12 13 11 13 15 16 13 12 15 20 26 25 23
6 5 6 6 5 5 5 5 4 2 4 2 4 3 8 10 9 9 2 5 5 5 5 5 6 6 5 5 6 6 6 6 7 6 6 7 6 7 7 7 7 7 6 8 9 9 9 8 9 10 10 9 9 9 10 10 10 11 10 11 11 10 10 12 13 12 12 14 13 18 16 19 21 24
6 6 6 6 6 6 6 5 5 6 6 5 1 8 10 9 10 3 5 5 5 5 5 5 6 6 6 5 5 6 5 5 6 5 5 5 5 5 5 6 6 7 7 9 9 9 8 8 8 9 9 9 9 10 10 9 9 10 11 10 11 11 10 11 11 9 10 10 11 11 11 12 12 13
7 9 10 8 6 7 7 8 8 6 4 1 5 9 11 11 2 5 5 5 5 5 5 5 5 5 5 4 4 5 5 4 4 5 4 3 4 4 3 4 6 6 6 7 8 8 8 9 9 8 7 8 8 9 8 9 9 10 10 9 10 12 11 10 10 10 11 10 9 10 12 12 12 11
11 9 8 7 8 7 6 6 6 5 5 3 7 9 12 2 5 5 5 5 4 5 4 4 4 4 4 4 3 2 3 4 5 4 4 4 4 3 3 3 5 6 7 8 9 9 8 8 9 9 7 7 8 7 8 8 9 9 10 10 8 8 11 11 11 10 10 10 11 11 10 10 10 9
6 5 4 3 4 6 5 4 6 4 5 6 8 6 3 5 5 5 5 4 4 3 3 3 4 4 3 3 3 4 4 5 5 5 5 4 5 4 3 4 4 5 6 6 8 9 9 8 8 9 8 7 7 8 8 7 7 8 9 9 10 9 9 10 10 10 10 10 9 9 9 9 9 9
6 5 5 5 6 5 5 5 6 5 5 4 1 2 3 5 4 5 4 5 3 2 3 3 2 2 3 3 3 4 5 5 5 5 5 5 5 5 5 4 5 5 5 5 6 6 7 8 8 7 8 8 8 7 5 7 7 7 7 7 8 8 8 8 8 8 9 9 9 9 9 8 8 7
6 6 6 5 5 5 3 4 4 4 3 3 2 1 1 2 3 2 3 4 4 3 3 3 4 4 4 4 3 3 3 4 5 6 4 4 4 4 4 5 5 6 6 6 5 5 4 3 4 5 7 7 8 9 7 6 7 6 6 6 6 7 7 7 7 7 6 8 8 8 9 8 7 7
4 4 4 4 4 4 4 3 2 2 3 4 4 4 1 1 3 2 2 3 4 3 3 4 3 4 4 4 4 4 4 3 3 4 4 5 5 5 5 5 5 5 5 5 6 6 5 4 1 2 3 5 7 9 8 7 6 6 6 6 6 6 5 5 6 6 6 6 6 7 7 7 7 6
2 2 2 2 3 2 3 3 3 2 1 0 1 2 2 2 3 0 2 3 2 2 1 3 3 4 4 4 4 4 4 5 4 4 4 4 5 5 6 6 5 5 5 5 6 6 6 6 6 4 1 3 5 8 9 8 7 6 5 6 5 5 5 5 4 4 5 6 5 5 6 6 6 5
3 2 2 2 2 3 3 1 2 2 2 2 2 2 1 1 2 0 2 3 2 1 1 2 2 2 3 4 4 4 4 5 4 4 4 3 4 4 4 4 5 4 4 5 5 5 5 6 6 6 5 4 3 2 4 4 5 7 6 4 5 4 4 4 4 4 4 4 4 4 2 4 5 4
2 2 3 3 3 3 2 4 3 2 2 2 1 2 1 1 2 2 4 0 1 1 3 2 2 2 2 2 4 2 2 3 2 3 3 4 4 5 5 4 4 5 4 4 4 5 5 5 6 6 6 5 5 5 3 3 2 5 6 4 3 4 4 3 3 4 3 3 4 4 4 3 4 5
1 3 2 3 2 2 2 2 3 2 2 1 1 2 2 2 2 2 1 2 1 0 0 1 1 2 3 2 3 3 3 3 3 2 3 4 3 4 4 5 6 6 5 5 4 3 3 3 5 6 6 5 5 5 5 3 2 2 2 5 2 1 3 2 2 1 2 3 3 3 3 2 3 4
3 3 2 3 2 3 3 2 2 1 2 2 1 1 1 2 2 1 1 2 1 1 1 1 2 2 3 3 3 3 3 3 3 3 3 3 4 5 3 4 6 6 6 5 6 5 4 3 4 6 7 6 5 5 4 4 4 1 3 2 4 2 2 2 2 2 1 0 1 2 4 5 7 7
2 2 2 2 3 2 2 2 2 2 2 2 1 1 1 0 1 1 0 0 0 1 1 1 1 2 3 2 3 3 3 5 2 3 2 3 3 4 4 4 5 4 4 5 4 5 5 4 6 7 7 6 5 3 4 4 4 3 2 6 7 5 4 3 2 1 2 2 1 1 1 3 3 5
3 3 3 2 3 2 2 2 2 2 1 1 2 1 1 1 1 1 2 2 2 2 2 2 2 2 2 2 2 3 3 3 3 3 3 3 3 3 3 5 4 3 4 4 6 6 5 5 3 1 4 5 4 5 5 5 3 1 1 4 10 11 9 7 5 4 3 3 4 2 2 2 1 3
4 3 3 3 2 2 2 2 1 2 1 1 1 2 1 0 2 2 1 2 2 1 2 2 2 2 2 2 2 2 3 3 3 3 3 4 4 4 3 4 4 4 4 5 4 6 7 3 6 5 4 3 3 4 4 4 4 4 4 3 5 10 12 11 10 10 7 6 3 3 3 3 2 3
2 3 3 3 1 2 2 2 2 2 1 1 1 0 0 0 0 2 1 0 0 1 2 2 2 2 2 3 3 3 3 3 3 3 4 4 4 5 4 4 4 4 5 5 6 5 4 6 6 5 3 4 4 4 5 4 5 5 5 5 2 4 6 11 13 13 12 12 10 8 6 5 4 4
3 2 2 3 3 2 1 2 1 1 1 1 0 0 0 0 0 0 1 1 1 2 2 2 2 2 3 3 3 3 3 3 4 4 5 4 4 4 4 4 4 4 4 5 5 4 4 4 4 3 4 4 4 5 6 6 6 5 6 6 5 7 7 3 7 10 10 11 14 15 17 15 13 12
2 2 2 2 2 2 2 2 1 1 0 0 0 0 0 1 1 1 0 1 1 1 2 2 3 3 3 3 3 3 3 5 5 4 4 4 4 4 4 5 5 5 5 5 6 6 5 4 5 4 5 5 4 5 5 5 6 6 7 7 7 7 6 6 7 5 7 8 14 20 19 18 18 19
Wind_Direction
59 63 58 62 63 54 48 39 25 19 8 13 2 2 357 344 332 339 338 354 343 11 10 3 3 6 3 355 353 351 345 14 355 335 346 356 355 57 27 43 37 27 14 9 4 1 358 352 348 346 341 335 329 320 311 294 242 226 221 213 213 214 213 227 216 207 203 205 203 200 195 192 191 192
69 74 76 77 70 53 39 45 28 25 13 14 10 5 3 358 342 340 331 326 9 353 2 4 351 0 2 351 353 349 340 56 344 344 335 344 349 83 61 55 45 39 18 10 6 4 1 357 353 352 349 347 344 336 325 315 283 231 231 221 215 216 212 218 216 212 208 205 203 205 201 193 192 191
80 76 70 66 68 61 54 42 35 30 15 12 2 7 359 10 355 341 333 324 9 356 352 354 354 359 358 350 350 348 341 3 336 349 340 346 325 269 117 63 55 43 25 12 9 4 3 360 358 355 352 351 350 351 346 335 325 298 239 229 224 217 216 212 214 214 211 209 205 203 207 196 190 189
87 86 81 67 59 45 43 46 35 30 24 14 12 7 1 14 11 349 342 337 335 1 355 348 353 3 353 345 355 351 348 347 342 352 352 347 325 345 117 93 54 50 29 10 9 4 358 1 0 359 356 355 352 352 347 346 340 331 318 258 230 224 216 212 209 214 214 207 206 203 204 198 194 188
86 82 80 76 68 47 37 33 27 25 20 19 21 16 12 15 12 5 351 346 342 348 353 351 353 359 358 347 359 352 350 348 347 342 1 357 351 351 348 51 64 46 34 7 9 6 355 357 359 359 357 357 354 350 346 344 342 336 326 317 276 234 222 215 207 209 216 212 207 203 199 199 193 191
85 76 71 69 60 52 51 41 34 27 17 10 20 21 21 15 11 18 355 353 345 345 345 358 353 357 2 348 359 354 349 351 346 353 358 359 360 355 353 344 51 42 29 359 11 8 355 354 356 358 355 354 353 350 347 343 341 336 331 321 311 278 231 220 212 206 211 213 205 202 200 197 191 188
91 84 78 72 66 55 53 45 42 28 24 18 25 29 25 17 11 12 5 350 349 344 344 1 352 0 358 359 354 357 351 350 351 356 1 354 4 0 353 358 345 46 3 4 14 11 353 352 357 1 355 356 353 350 346 344 338 334 330 325 314 301 273 231 218 212 205 212 210 196 198 197 192 185
85 81 78 68 58 59 52 45 40 35 25 26 20 25 23 24 13 8 0 356 343 343 341 1 355 358 355 359 360 2 353 355 0 6 0 8 4 3 2 359 358 11 349 355 25 14 353 354 359 2 356 355 353 349 346 342 337 334 329 323 315 305 286 264 227 211 209 207 211 200 195 192 190 188
93 85 72 60 57 48 48 42 36 35 30 29 30 19 21 17 18 11 3 355 355 349 352 352 359 360 4 360 1 9 360 358 9 2 8 12 7 7 7 4 7 9 349 4 16 14 357 356 357 4 355 2 355 349 347 341 339 334 328 321 313 303 292 271 252 226 211 207 206 203 194 191 191 189
87 79 73 64 52 50 45 37 31 30 33 34 33 30 21 13 14 17 11 6 1 359 359 6 354 8 7 1 7 14 3 0 6 5 4 10 11 6 7 16 11 5 359 1 4 6 360 356 359 4 357 7 355 354 346 344 341 334 327 320 311 301 289 274 257 242 220 211 201 200 196 191 191 191
87 80 74 68 57 49 41 40 29 21 29 35 35 32 22 13 4 9 23 8 4 12 7 11 11 6 14 11 4 10 9 5 14 8 1 9 7 11 15 10 11 7 359 7 53 36 356 344 1 359 359 13 357 357 351 347 343 337 330 321 312 300 286 269 255 242 228 215 206 195 194 187 191 191
94 82 80 74 61 53 46 40 37 23 18 26 38 30 22 16 7 15 19 12 10 17 16 18 14 14 11 15 10 8 10 6 12 14 3 3 3 5 12 21 10 5 358 360 2 11 3 360 5 4 1 10 357 3 354 353 346 341 332 325 316 304 285 265 247 238 231 222 213 201 188 191 188 191
107 94 85 79 75 77 79 62 54 43 16 18 35 26 19 16 17 22 22 25 11 22 24 23 20 18 18 14 8 9 9 6 0 1 1 2 4 3 3 17 19 12 357 354 5 10 3 360 2 359 359 2 0 3 1 353 349 345 337 334 329 317 293 261 244 232 225 222 218 207 193 190 189 194
108 105 94 99 119 133 126 109 85 71 58 43 37 31 26 15 26 35 38 31 20 15 31 27 18 18 20 12 9 7 4 358 342 353 2 2 2 2 1 10 15 12 360 351 2 10 6 2 1 4 0 2 4 5 3 354 348 345 341 343 342 338 320 272 244 232 221 215 214 212 201 193 192 187
123 122 127 137 157 151 148 131 124 102 89 88 88 71 50 32 23 32 41 42 31 26 28 30 21 19 12 7 2 4 352 351 337 349 357 1 1 4 2 358 359 16 359 350 353 5 7 1 5 6 4 2 4 7 2 350 350 351 350 351 352 349 343 308 252 236 228 214 210 211 206 194 189 186
125 123 123 121 116 70 53 136 141 132 136 132 115 125 114 90 70 44 36 25 42 28 32 23 25 10 9 354 0 353 347 339 327 343 356 3 359 0 3 360 356 1 360 351 343 4 9 2 8 11 8 4 4 8 1 354 353 357 360 2 1 357 352 341 281 242 230 223 210 207 199 189 186 184
127 125 124 124 122 130 236 20 79 127 150 163 161 138 143 129 124 119 103 64 27 12 32 22 21 15 353 351 354 345 334 327 325 343 353 356 350 345 353 354 357 1 1 355 339 351 11 6 4 15 12 10 10 7 4 357 356 1 4 7 6 3 2 355 328 259 236 223 217 203 198 187 183 180
130 143 137 135 135 123 93 78 83 61 58 88 137 147 94 67 146 155 145 178 208 247 16 20 13 9 2 350 344 340 333 324 332 333 340 332 338 332 333 319 359 15 10 1 343 348 8 8 0 11 11 10 16 14 10 4 1 5 9 9 9 7 7 2 349 298 244 227 215 205 198 187 179 177
130 125 116 115 112 93 72 56 357 37 66 65 72 68 75 79 50 40 20 13 10 16 20 19 12 6 10 5 357 349 338 330 326 303 298 335 327 321 339 340 20 15 29 6 354 352 0 1 359 3 9 7 14 13 12 13 6 4 9 10 11 11 12 7 6 357 276 229 210 195 198 191 176 174
146 133 128 123 112 99 98 72 346 330 344 55 51 65 71 62 90 76 68 80 60 3 1 7 4 4 3 317 334 334 335 340 326 318 349 353 348 356 8 15 4 15 21 16 359 346 356 358 359 350 6 14 13 12 11 4 5 2 7 12 13 13 13 14 16 20 26 62 100 111 127 138 143 162
137 141 124 131 119 115 100 93 322 328 315 33 43 54 54 61 51 96 152 189 172 167 189 199 249 271 271 262 247 269 311 327 325 344 356 10 355 11 9 15 356 17 21 15 360 333 356 353 358 350 6 39 16 14 10 3 1 359 5 10 13 16 18 20 22 26 35 38 46 81 89 84 80 82
125 66 21 1 122 117 112 91 338 330 313 39 31 42 36 47 61 45 60 161 200 193 194 202 208 218 235 244 237 247 330 358 2 19 12 355 359 12 16 9 354 7 31 22 360 338 10 353 2 353 345 12 27 18 13 9 4 4 10 10 14 13 18 24 28 32 33 39 45 46 57 81 86 78
133 127 79 37 25 49 89 68 354 333 326 39 32 31 28 45 56 56 42 17 25 52 171 191 211 214 227 246 358 83 113 34 17 22 10 2 4 9 11 10 0 10 16 17 356 347 359 359 4 359 355 359 21 22 14 15 12 10 13 10 12 7 11 21 31 33 34 39 41 44 48 47 61 89
146 139 135 94 58 62 74 66 9 342 339 14 40 28 37 32 39 40 62 33 355 37 17 17 2 21 19 16 341 27 26 17 23 21 17 13 8 6 9 14 15 18 7 14 345 342 1 7 360 8 13 1 355 0 12 18 15 16 15 13 14 7 9 16 29 31 35 37 39 43 43 43 48 76
150 157 131 115 74 75 86 82 45 360 347 343 37 37 52 27 347 298 358 137 223 4 359 18 4 13 18 28 18 28 30 21 15 19 21 20 18 17 16 14 17 23 13 13 343 1 5 12 3 4 14 17 13 4 7 15 19 19 16 21 20 14 13 17 25 30 33 36 39 43 46 49 44 45
141 131 124 111 83 92 109 95 75 17 348 355 44 54 306 286 286 301 13 31 32 28 30 24 26 19 29 35 29 23 30 24 18 17 21 24 24 24 27 21 20 19 6 9 10 12 8 20 10 6 13 12 19 19 8 15 24 26 17 15 22 18 21 15 22 27 27 30 34 45 54 54 53 49
118 112 102 93 88 102 107 102 79 35 321 248 67 259 261 262 265 260 44 43 37 35 38 32 33 28 25 31 30 25 22 26 25 22 21 26 32 36 38 38 32 25 10 9 25 25 21 23 18 15 15 17 16 13 20 17 17 20 30 25 23 19 20 28 30 24 22 25 25 24 40 46 54 59
127 125 102 96 114 114 113 111 86 56 23 56 108 261 265 276 279 19 60 55 48 42 38 38 38 35 28 26 25 22 19 18 14 36 23 13 38 50 38 40 45 30 10 7 18 28 26 22 25 25 19 16 21 19 20 23 22 18 21 33 33 29 25 29 33 31 28 27 25 23 29 28 23 37
67 74 93 114 132 129 138 135 139 126 103 173 263 272 281 276 70 57 52 45 49 48 39 34 34 39 35 35 27 8 357 357 4 5 40 44 25 32 68 64 48 45 30 14 13 17 18 17 22 30 29 22 29 31 27 31 25 27 20 21 34 30 32 35 37 42 44 43 43 38 36 38 39 34
97 102 113 125 141 160 168 190 183 160 134 192 242 254 264 44 54 52 57 58 48 50 47 40 33 30 32 33 17 358 9 20 22 4 1 17 28 6 6 42 60 55 44 35 26 18 22 18 14 12 28 28 20 25 30 32 36 36 32 33 32 40 36 39 41 45 46 49 52 50 51 46 42 44
129 149 188 102 60 57 60 40 62 102 141 202 222 217 73 62 67 64 53 50 52 35 40 37 34 28 27 31 31 29 28 31 26 15 5 19 20 358 1 18 40 61 54 49 44 28 21 18 19 16 13 15 27 24 18 23 41 42 44 42 39 45 37 42 46 47 47 51 53 55 59 57 52 46
130 134 124 149 168 156 173 170 176 177 195 203 204 107 113 95 94 119 155 239 61 27 21 24 4 26 7 25 24 35 35 27 26 13 23 6 19 7 12 23 29 31 52 50 51 52 40 32 21 25 26 16 11 2 26 33 31 34 41 43 52 58 49 48 51 51 56 58 59 57 55 57 61 66
151 160 177 160 174 180 182 186 181 166 179 166 130 153 193 138 103 83 60 64 51 10 0 23 2 357 3 9 5 15 41 39 36 14 13 18 9 8 18 25 30 20 21 33 27 35 31 39 53 43 39 36 24 6 1 32 34 29 37 39 42 44 50 57 53 66 75 61 61 64 62 61 65 71
178 176 157 168 168 172 180 170 171 175 176 179 173 131 20 231 72 53 84 64 56 39 360 355 12 1 345 5 358 10 3 17 35 46 350 19 11 19 13 20 25 24 21 25 26 12 6 1 288 152 127 79 60 40 13 3 29 34 33 31 35 49 47 45 48 57 65 72 80 78 73 75 77 79
148 152 150 159 142 174 147 153 154 179 169 171 175 156 144 85 108 236 82 64 63 14 15 4 359 356 345 6 360 358 7 345 354 21 13 24 12 25 22 11 12 13 16 21 21 19 358 8 355 358 32 154 131 93 53 10 354 15 34 37 37 39 40 33 53 47 42 51 56 70 91 97 97 102
149 163 149 163 154 152 138 141 159 191 155 189 160 145 125 104 94 318 63 46 312 334 6 358 347 1 345 345 353 341 360 321 353 358 354 359 19 357 25 19 353 353 12 16 12 14 358 7 3 1 0 4 13 30 74 60 32 341 6 34 30 32 34 47 28 32 42 57 67 86 75 88 94 101
142 188 152 158 147 157 154 169 174 178 172 174 150 127 141 128 120 76 75 200 287 330 23 316 325 337 325 339 317 313 319 334 343 345 342 350 9 2 5 355 350 342 354 13 3 11 359 3 8 3 5 359 8 17 41 127 49 332 343 5 25 21 11 21 28 40 39 44 54 50 71 77 104 109
174 190 173 150 157 132 116 130 147 189 171 146 145 126 109 99 100 96 174 208 81 329 274 272 345 312 324 330 317 334 328 339 325 347 340 350 1 360 355 352 346 346 345 347 344 351 339 3 7 7 2 4 0 6 4 7 119 142 70 329 347 6 332 343 10 31 43 43 43 44 70 80 75 102
196 158 179 169 148 158 154 146 143 159 163 155 148 135 113 117 108 127 94 37 19 344 335 335 343 355 313 309 327 319 323 334 334 340 341 347 354 354 352 354 338 333 335 343 335 338 324 10 24 12 356 359 359 358 347 326 333 40 139 245 316 323 315 339 350 341 7 39 110 81 59 80 82 68
169 173 171 148 150 152 142 151 179 160 160 159 141 72 86 92 118 132 112 92 48 13 313 334 351 319 302 335 324 312 308 306 316 316 336 339 349 337 352 349 322 312 322 334 328 327 333 12 30 359 343 335 334 321 308 300 291 282 178 190 218 255 316 330 313 312 307 351 10 269 166 160 177 174
152 176 154 176 136 148 137 164 147 156 151 120 110 99 303 55 16 38 20 13 354 323 320 326 328 304 308 314 308 315 313 317 319 330 339 332 329 333 340 309 298 328 337 327 323 324 338 23 67 129 273 294 294 289 274 273 290 316 269 171 193 215 237 269 289 312 303 321 298 299 274 241 221 182
171 159 128 160 147 137 136 130 141 138 167 151 175 157 166 230 68 59 278 205 232 257 269 270 276 284 286 282 292 304 315 320 318 327 332 330 322 319 306 302 329 341 327 318 321 318 333 351 154 199 230 276 289 294 304 316 309 310 328 314 184 205 207 217 250 270 286 300 294 263 255 258 251 266
194 155 151 139 126 134 131 130 164 171 154 145 143 97 67 276 152 196 267 122 299 286 323 325 320 315 322 318 317 319 308 303 310 320 327 311 311 317 315 319 330 321 313 310 307 312 311 317 309 306 308 290 288 290 286 301 308 300 291 292 321 160 196 211 221 225 240 256 263 267 288 300 301 264
170 157 153 138 157 157 167 192 191 161 173 175 112 173 289 315 255 283 302 316 317 336 344 328 326 326 324 317 313 309 304 325 339 322 309 308 305 297 301 307 301 297 298 296 305 314 314 305 307 302 292 295 299 294 296 299 289 294 304 308 314 314 303 254 207 222 238 239 247 252 258 259 255 271
150 164 141 155 155 162 161 177 169 179 122 76 266 3 339 272 304 307 295 291 289 332 317 318 326 324 319 320 317 315 322 322 298 292 297 297 303 306 301 299 295 295 293 303 303 297 298 307 305 297 286 283 282 283 284 283 285 292 288 281 280 277 271 276 279 250 222 222 218 223 233 236 245 250